Location: Ravensburg
(47.7866°N, 9.6124°E)
Time: 14:52:48
(UTC+02:00)

ITAMSAT 1 - Pass Details

Date: 23 March 2026
Orbit: 782 x 793 km, 98.7° (Epoch: 18 April)

Event Time Altitude Azimuth Distance (km) Brightness Sun altitude
Exits shadow 22:59:34 19° 286° (WNW) 1,828 9.9 -37.3°
Drops below altitude 10° 23:02:11 10° 316° (NW) 2,357 10.8 -37.5°
Sets 23:05:10 0° 333° (NNW) 3,294 11.8 -37.7°
